| time (UTC) | temp F | wind direction | speed MPH | gust MPH | rain 1hr in | rain 24hr in | rain mn in | humidity % | barometer mb |
| 20260831113031 | 56 | 110 | 3.0 | 5.0 | 0.00 | 0.00 | 0.00 | 69 | 1009.2 |
| 20260831111531 | 57 | 112 | 3.0 | 4.0 | 0.00 | 0.00 | 0.00 | 70 | 1009.2 |
| 20260831110030 | 57 | 112 | 4.0 | 6.0 | 0.00 | 0.00 | 0.00 | 70 | 1009.1 |
| 20260831104537 | 57 | 112 | 3.0 | 6.0 | 0.00 | 0.00 | 0.00 | 71 | 1009.2 |
| 20260831101530 | 58 | 112 | 0.0 | 1.0 | 0.00 | 0.00 | 0.00 | 69 | 1009.2 |
| 20260831100106 | 59 | 112 | 2.0 | 5.0 | 0.00 | 0.00 | 0.00 | 67 | 1009.3 |
| 20260831094532 | 59 | 112 | 4.0 | 5.0 | 0.00 | 0.00 | 0.00 | 66 | 1009.4 |
| 20260831093030 | 59 | 112 | 3.0 | 4.0 | 0.00 | 0.00 | 0.00 | 65 | 1009.5 |
| 20260831090029 | 60 | 112 | 4.0 | 6.0 | 0.00 | 0.00 | 0.00 | 62 | 1009.6 |
| 20260831084529 | 60 | 112 | 5.0 | 6.0 | 0.00 | 0.00 | 0.00 | 60 | 1009.6 |
| 20260831081531 | 61 | 112 | 5.0 | 6.0 | 0.00 | 0.00 | 0.00 | 56 | 1009.7 |
| 20260831080030 | 62 | 110 | 5.0 | 7.0 | 0.00 | 0.00 | 0.00 | 54 | 1009.7 |
| 20260831074534 | 62 | 108 | 4.0 | 6.0 | 0.00 | 0.00 | 0.00 | 56 | 1009.7 |
| 20260831071530 | 63 | 112 | 5.0 | 7.0 | 0.00 | 0.00 | 0.00 | 55 | 1009.6 |
| 20260831070031 | 63 | 112 | 5.0 | 7.0 | 0.00 | 0.00 | 0.00 | 56 | 1009.6 |
| 20260831064529 | 63 | 108 | 4.0 | 7.0 | 0.00 | 0.00 | 0.00 | 60 | 1009.7 |
| 20260831061529 | 65 | 108 | 3.0 | 6.0 | 0.00 | 0.00 | 0.00 | 59 | 1009.8 |
| 20260831060032 | 65 | 104 | 3.0 | 6.0 | 0.00 | 0.00 | 0.00 | 59 | 1009.8 |
| 20260831054532 | 65 | 112 | 2.0 | 4.0 | 0.00 | 0.00 | 0.00 | 60 | 1009.8 |
| 20260831053030 | 65 | 156 | 0.0 | 3.0 | 0.00 | 0.00 | 0.00 | 60 | 1009.9 |
| 20260831051529 | 65 | 19 | 0.0 | 2.0 | 0.00 | 0.00 | 0.00 | 58 | 1009.9 |
| 20260831050027 | 66 | 340 | 0.0 | 5.0 | 0.00 | 0.00 | 0.00 | 57 | 1009.9 |
| 20260831043030 | 66 | 289 | 1.0 | 5.0 | 0.00 | 0.00 | 0.00 | 54 | 1009.8 |
| 20260831040055 | 67 | 254 | 3.0 | 7.0 | 0.00 | 0.00 | 0.00 | 53 | 1009.7 |
| 20260831034528 | 67 | 274 | 2.0 | 5.0 | 0.00 | 0.00 | 0.00 | 52 | 1009.6 |
| 20260831033107 | 68 | 267 | 3.0 | 5.0 | 0.00 | 0.00 | 0.00 | 50 | 1009.4 |
| 20260831031531 | 69 | 259 | 2.0 | 5.0 | 0.00 | 0.00 | 0.00 | 49 | 1009.4 |
| 20260831030029 | 69 | 245 | 3.0 | 5.0 | 0.00 | 0.00 | 0.00 | 48 | 1009.3 |
| 20260831024530 | 71 | 265 | 3.0 | 7.0 | 0.00 | 0.00 | 0.00 | 46 | 1009.2 |
| 20260831023032 | 72 | 271 | 4.0 | 8.0 | 0.00 | 0.00 | 0.00 | 43 | 1009.2 |
| 20260831021532 | 74 | 273 | 5.0 | 10.0 | 0.00 | 0.00 | 0.00 | 41 | 1009.2 |
| 20260831020031 | 75 | 276 | 6.0 | 11.0 | 0.00 | 0.00 | 0.00 | 39 | 1009.2 |
| 20260831014531 | 77 | 264 | 6.0 | 11.0 | 0.00 | 0.00 | 0.00 | 36 | 1009.2 |
| 20260831011607 | 78 | 273 | 7.0 | 14.0 | 0.00 | 0.00 | 0.00 | 35 | 1009.2 |
| 20260831004530 | 78 | 274 | 6.0 | 12.0 | 0.00 | 0.00 | 0.00 | 34 | 1009.4 |
| 20260831003029 | 78 | 277 | 7.0 | 15.0 | 0.00 | 0.00 | 0.00 | 33 | 1009.4 |
| 20260831000032 | 79 | 283 | 7.0 | 13.0 | 0.00 | 0.00 | 0.00 | 32 | 1009.5 |
| 20260830234531 | 79 | 275 | 7.0 | 14.0 | 0.00 | 0.00 | 0.00 | 33 | 1009.7 |
| 20260830233030 | 79 | 279 | 6.0 | 12.0 | 0.00 | 0.00 | 0.00 | 33 | 1009.8 |
| 20260830231533 | 79 | 276 | 6.0 | 14.0 | 0.00 | 0.00 | 0.00 | 32 | 1009.9 |
| 20260830230029 | 79 | 275 | 6.0 | 12.0 | 0.00 | 0.00 | 0.00 | 32 | 1010.1 |
| 20260830224533 | 78 | 271 | 6.0 | 13.0 | 0.00 | 0.00 | 0.00 | 32 | 1010.4 |
| 20260830223031 | 78 | 262 | 7.0 | 14.0 | 0.00 | 0.00 | 0.00 | 32 | 1010.8 |
| 20260830221531 | 79 | 279 | 6.0 | 12.0 | 0.00 | 0.00 | 0.00 | 32 | 1011.0 |
| 20260830213037 | 77 | 302 | 7.0 | 13.0 | 0.00 | 0.00 | 0.00 | 33 | 1011.6 |
| 20260830211530 | 77 | 312 | 6.0 | 14.0 | 0.00 | 0.00 | 0.00 | 34 | 1011.6 |
| 20260830210030 | 77 | 308 | 6.0 | 13.0 | 0.00 | 0.00 | 0.00 | 35 | 1011.8 |
| 20260830204532 | 77 | 313 | 5.0 | 11.0 | 0.00 | 0.00 | 0.00 | 37 | 1012.0 |
| 20260830203031 | 75 | 300 | 5.0 | 11.0 | 0.00 | 0.00 | 0.00 | 38 | 1012.2 |
| 20260830201530 | 75 | 312 | 5.0 | 11.0 | 0.00 | 0.00 | 0.00 | 39 | 1012.5 |
| 20260830200037 | 74 | 295 | 6.0 | 10.0 | 0.00 | 0.00 | 0.00 | 41 | 1012.6 |
| 20260830193106 | 74 | 318 | 5.0 | 10.0 | 0.00 | 0.00 | 0.00 | 42 | 1013.1 |
| 20260830190027 | 72 | 342 | 3.0 | 10.0 | 0.00 | 0.00 | 0.00 | 45 | 1013.5 |
| 20260830184535 | 71 | 312 | 3.0 | 9.0 | 0.00 | 0.00 | 0.00 | 45 | 1013.7 |
| 20260830183037 | 71 | 329 | 3.0 | 8.0 | 0.00 | 0.00 | 0.00 | 46 | 1013.8 |
| 20260830181530 | 70 | 271 | 2.0 | 9.0 | 0.00 | 0.00 | 0.00 | 48 | 1014.0 |
| 20260830180030 | 68 | 327 | 4.0 | 10.0 | 0.00 | 0.00 | 0.00 | 50 | 1014.0 |
| 20260830173031 | 69 | 17 | 2.0 | 5.0 | 0.00 | 0.00 | 0.00 | 51 | 1014.2 |
| 20260830171534 | 67 | 327 | 2.0 | 6.0 | 0.00 | 0.00 | 0.00 | 54 | 1014.2 |
| 20260830170147 | 66 | 311 | 1.0 | 5.0 | 0.00 | 0.00 | 0.00 | 56 | 1014.5 |
| 20260830164538 | 63 | 277 | 2.0 | 4.0 | 0.00 | 0.00 | 0.00 | 60 | 1014.7 |
| 20260830163032 | 62 | 117 | 2.0 | 5.0 | 0.00 | 0.00 | 0.00 | 62 | 1014.8 |
| 20260830161536 | 62 | 77 | 2.0 | 5.0 | 0.00 | 0.00 | 0.00 | 61 | 1015.0 |
| 20260830160032 | 62 | 160 | 1.0 | 4.0 | 0.00 | 0.00 | 0.00 | 61 | 1015.1 |
| 20260830154533 | 60 | 265 | 1.0 | 4.0 | 0.00 | 0.00 | 0.00 | 63 | 1015.2 |
| 20260830153105 | 58 | 179 | 1.0 | 4.0 | 0.00 | 0.00 | 0.00 | 65 | 1015.3 |
| 20260830151533 | 58 | 143 | 0.0 | 2.0 | 0.00 | 0.00 | 0.00 | 67 | 1015.3 |
| 20260830150035 | 56 | 247 | 0.0 | 3.0 | 0.00 | 0.00 | 0.00 | 72 | 1015.3 |
| 20260830144530 | 54 | 197 | 1.0 | 4.0 | 0.00 | 0.00 | 0.00 | 75 | 1015.3 |
| 20260830143030 | 53 | 112 | 0.0 | 0.0 | 0.00 | 0.00 | 0.00 | 77 | 1015.2 |
| 20260830141606 | 52 | 112 | 0.0 | 1.0 | 0.00 | 0.00 | 0.00 | 79 | 1015.1 |
| 20260830140032 | 51 | 112 | 0.0 | 2.0 | 0.00 | 0.00 | 0.00 | 78 | 1014.9 |
| 20260830133026 | 52 | 100 | 2.0 | 3.0 | 0.00 | 0.00 | 0.00 | 76 | 1014.6 |
| 20260830131535 | 52 | 34 | 0.0 | 2.0 | 0.00 | 0.00 | 0.00 | 77 | 1014.5 |
| 20260830130028 | 52 | 311 | 0.0 | 3.0 | 0.00 | 0.00 | 0.00 | 76 | 1014.4 |
| 20260830124534 | 52 | 35 | 0.0 | 2.0 | 0.00 | 0.00 | 0.00 | 76 | 1014.3 |
| 20260830123037 | 53 | 22 | 0.0 | 1.0 | 0.00 | 0.00 | 0.00 | 75 | 1014.4 |
| 20260830121531 | 53 | 22 | 0.0 | 2.0 | 0.00 | 0.00 | 0.00 | 76 | 1014.4 |
| 20260830120030 | 53 | 14 | 0.0 | 2.0 | 0.00 | 0.00 | 0.00 | 75 | 1014.3 |
| 20260830114529 | 53 | 360 | 0.0 | 0.0 | 0.00 | 0.00 | 0.00 | 74 | 1014.4 |